Flag for Switzerland Weather past 2 weeks in Montreux, Vaud, Switzerland

Now
48 °F

Cool.


Feels Like: 48 °F
Forecast: 28 / 38 °F
Wind: 2 mph from West

Location: Aigle

Current Time: Mar 2, 2015 at 12:33:30 PM

Latest Report: Mar 2, 2015 at 11:00 AM


Visibility: N/A

Pressure: 29.97 "Hg

Humidity: 90%

Dew point: 46 °F

Location of MontreuxLocation

Historic Weather in Montreux — Graph

°F

Montreux temperature yesterday

Maximum temperature yesterday: 46 °F (at 2:00 PM)
Minimum temperature yesterday: 33 °F (at 12:00 AM)
Average temperature yesterday: 41 °F

Past Weeks' High & Low Weather Summary

 TemperatureHumidityPressure
High50 °F (Feb 15, 2:00 PM)99% (Feb 21, 9:00 PM)30.66 "Hg (Feb 21, 9:00 PM)
Low28 °F (Feb 19, 6:00 AM)35% (Feb 20, 11:00 AM)29.58 "Hg (Feb 21, 11:00 AM)
Average38 °F79%30.08 "Hg
* Reported Feb 15 11:00 AM — Mar 2 11:00 AM, Montreux, Weather by CustomWeather, © 2015

Note: Actual official high and low records may vary slightly from our data, if they occured in-between our weather recording intervals... More about our weather records

Advertising

Montreux weather history for previous 24 hours

 ConditionsComfort  
Time TempWeatherWind HumidityBarometerVisibility
11:00 AM
Mon, Mar 2
48 °FCool.2 mph90%29.97 "HgN/A
10:00 AM48 °FRain. Overcast.9 mph90%29.96 "Hg7 mi
9:00 AM49 °FCool.8 mph83%29.94 "HgN/A
8:00 AM48 °FCool.25 mph86%29.89 "HgN/A
7:00 AM44 °FRain. Low clouds.2 mph94%29.87 "Hg5 mi
6:00 AM44 °FQuite cool.2 mph96%29.88 "HgN/A
5:00 AM45 °FCool.6 mph90%29.88 "HgN/A
4:00 AM44 °FRain. Overcast.10 mph93%29.89 "Hg5 mi
3:00 AM44 °FQuite cool.12 mph92%29.94 "HgN/A
2:00 AM44 °FQuite cool.6 mph92%29.95 "HgN/A
1:00 AM44 °FQuite cool.7 mph88%29.94 "HgN/A
12:00 AM44 °FQuite cool.12 mph87%29.95 "HgN/A
11:00 PM
Sun, Mar 1
44 °FQuite cool.9 mph90%29.97 "HgN/A
9:00 PM44 °FQuite cool.7 mph88%29.99 "HgN/A
8:00 PM44 °FQuite cool.12 mph86%29.98 "HgN/A
7:00 PM43 °FOvercast.6 mph88%29.98 "Hg12 mi
6:00 PM44 °FQuite cool.7 mph87%29.99 "HgN/A
5:00 PM44 °FQuite cool.2 mph83%29.98 "HgN/A
4:00 PM45 °FOvercast.5 mph75%29.97 "Hg16 mi
3:00 PM45 °FQuite cool.8 mph81%29.99 "HgN/A
2:00 PM46 °FCool.3 mph74%30.00 "HgN/A
1:00 PM44 °FOvercast.14 mph80%30.03 "Hg11 mi
12:00 PM42 °FQuite cool.5 mph78%30.05 "HgN/A
Weather by CustomWeather, © 2015

See weather overviewHow to use our weather pages